North Platte, NE

4:16 PM CDT on May 24, 2017 (GMT -0500)
North Platte Regional-Bird

Weather History for KLBF - March, 2012

Change the Weather History Date:

Wednesday, March 7, 2012

  Actual Average Record
Temperature  
Mean Temperature 38 °F 35 °F  
Max Temperature 55 °F 50 °F 78 °F (1879)
Min Temperature 20 °F 21 °F -13 °F (1920)
Degree Days  
Heating Degree Days 27 30  
Month to date heating degree days 181 215  
Since 1 July heating degree days 4896 5243  
Cooling Degree Days 0 0  
Month to date cooling degree days 0 0  
Year to date cooling degree days 0 0  
Moisture  
Dew Point 24 °F    
Average Humidity 60    
Maximum Humidity 82    
Minimum Humidity 38    
Precipitation  
Precipitation 0.00 in 0.03 in 0.71 in (2000)
Month to date precipitation T 0.19  
Year to date precipitation 1.35 1.03  
Snow  
Snow 0.00 in 0.10 in 6.00 in (1998)
Month to date snowfall T 1.1  
Since 1 July snowfall 15.6 22.0  
Snow Depth 0.00 in    
Sea Level Pressure  
Sea Level Pressure 29.85 in    
Wind  
Wind Speed 15 mph (North)    
Max Wind Speed 35 mph    
Max Gust Speed 46 mph    
Visibility 10 miles    
Events      
T = Trace of Precipitation, MM = Missing Value Source: NWS Daily Summary

Daily Weather History Graph

Daily Weather History Graph

Search for Another Location

Airport or City:

Trip Planner

Search our weather history database for the weather conditions in past years. The results will help you decide how hot, cold, wet, or windy it might be!

Date:

Astronomy

Mar. 07, 2012 Rise Set
Actual Time 7:06 AM CST 6:41 PM CST
Civil Twilight 6:39 AM CST 7:08 PM CST
Nautical Twilight 6:07 AM CST 7:40 PM CST
Astronomical Twilight 5:35 AM CST 8:12 PM CST
Moon 6:19 PM CST (3/7) 6:17 AM CST (3/7)
Length of Visible Light 12h 29m
Length of Day
11h 34m
Waxing Gibbous, 99% of the Moon is Illuminated
Mar 7
Waxing Gibbous
Mar 8
Full
Mar 14
Last Quarter
Mar 22
New
Mar 30
First Quarter

Hourly Weather History & Observations

Time (CST) Temp. Windchill Dew Point Humidity Pressure Visibility Wind Dir Wind Speed Gust Speed Precip Events Conditions
12:53 AM 52.0 °F - 30.9 °F 45% 29.41 in 10.0 mi Variable 3.5 mph 23.0 mph N/A   Clear
1:21 AM 41.0 °F 29.7 °F 30.2 °F 65% 29.47 in 10.0 mi North 31.1 mph 40.3 mph N/A   Clear
1:53 AM 37.9 °F 25.5 °F 30.9 °F 76% 29.49 in 10.0 mi North 31.1 mph 40.3 mph N/A   Clear
2:53 AM 37.0 °F 25.4 °F 30.9 °F 79% 29.51 in 10.0 mi North 25.3 mph 38.0 mph N/A   Clear
3:41 AM 37.4 °F 25.9 °F 32.0 °F 81% 29.58 in 10.0 mi NNE 25.3 mph 40.3 mph N/A   Mostly Cloudy
3:53 AM 37.9 °F 26.1 °F 32.0 °F 79% 29.56 in 10.0 mi NNE 27.6 mph 36.8 mph N/A   Mostly Cloudy
4:53 AM 37.0 °F 26.4 °F 30.0 °F 76% 29.64 in 10.0 mi North 20.7 mph 34.5 mph N/A   Overcast
5:53 AM 36.0 °F 24.7 °F 28.9 °F 76% 29.68 in 10.0 mi North 21.9 mph 28.8 mph N/A   Overcast
6:53 AM 34.0 °F 23.0 °F 24.1 °F 67% 29.76 in 10.0 mi North 18.4 mph 26.5 mph N/A   Overcast
7:53 AM 33.1 °F 20.6 °F 21.9 °F 64% 29.81 in 10.0 mi North 23.0 mph 28.8 mph N/A   Overcast
8:20 AM 33.8 °F 23.9 °F 23.0 °F 65% 29.80 in 10.0 mi North 15.0 mph 25.3 mph N/A   Overcast
8:53 AM 34.0 °F 23.8 °F 21.9 °F 61% 29.83 in 10.0 mi North 16.1 mph - N/A   Overcast
9:53 AM 35.1 °F 24.8 °F 23.0 °F 61% 29.88 in 10.0 mi North 17.3 mph 25.3 mph N/A   Overcast
10:53 AM 37.0 °F 28.1 °F 23.0 °F 57% 29.91 in 10.0 mi North 15.0 mph - N/A   Overcast
11:53 AM 37.0 °F 27.4 °F 21.0 °F 52% 29.90 in 10.0 mi NNW 17.3 mph - N/A   Overcast
12:53 PM 39.0 °F 30.3 °F 21.0 °F 49% 29.91 in 10.0 mi North 16.1 mph 23.0 mph N/A   Overcast
1:53 PM 39.9 °F 33.4 °F 21.0 °F 47% 29.94 in 10.0 mi North 10.4 mph - N/A   Overcast
2:53 PM 42.1 °F 35.7 °F 21.0 °F 43% 29.92 in 10.0 mi North 11.5 mph - N/A   Overcast
3:53 PM 42.1 °F 36.1 °F 19.9 °F 41% 29.94 in 10.0 mi North 10.4 mph - N/A   Overcast
4:53 PM 42.1 °F 37.1 °F 19.9 °F 41% 29.97 in 10.0 mi NNW 8.1 mph - N/A   Overcast
5:53 PM 39.9 °F 32.5 °F 19.9 °F 45% 30.01 in 10.0 mi North 12.7 mph - N/A   Overcast
6:53 PM 37.9 °F 30.5 °F 19.0 °F 47% 30.06 in 10.0 mi North 11.5 mph - N/A   Overcast
7:53 PM 37.0 °F 31.0 °F 19.9 °F 50% 30.10 in 10.0 mi North 8.1 mph - N/A   Overcast
8:53 PM 35.1 °F 30.1 °F 21.0 °F 57% 30.14 in 10.0 mi North 5.8 mph - N/A   Overcast
9:53 PM 28.9 °F 23.9 °F 19.0 °F 67% 30.18 in 10.0 mi NW 4.6 mph - N/A   Partly Cloudy
10:53 PM 28.0 °F 20.8 °F 18.0 °F 66% 30.21 in 10.0 mi NNW 6.9 mph - N/A   Clear
11:53 PM 19.9 °F 12.1 °F 16.0 °F 85% 30.27 in 10.0 mi NW 5.8 mph - N/A   Clear